Dewpoint
-8 -8 -9 -8 -7 -8 -9 -9 -8 -7 -4 -3 -4 -3 -1 -0 -1 -1 -0 -1 1 0 -2 -2 -3 -4 -4 -6 -3 -4 1 2 3 4 3 1 0 -1 -2 -3 -1 2 2 2 1 1 2 -6 -5 3 2 -1 -1 -1
-7 -9 -9 -8 -7 -8 -7 -6 -4 -3 -2 -2 -2 -1 -0 -0 -1 -0 0 -1 -2 0 -2 -1 -1 -1 -2 -1 -0 1 1 2 1 3 1 -0 1 1 -1 2 -3 2 -1 0 -1 2 2 -0 -0 1 -1 -2 -1 -1
-9 -10 -7 -6 -7 -6 -6 -5 -3 -3 -2 -2 -1 0 -0 -0 -2 -2 -0 -0 0 -0 -1 -2 -2 -4 -5 -1 -0 0 -0 1 2 2 2 3 2 0 2 1 -1 -0 -2 2 3 -2 -3 -2 -0 0 -2 -2 -2 -1
-9 -7 -6 -6 -6 -6 -6 -5 -3 -1 -3 -0 0 -0 -0 -1 -3 -4 -1 -1 -0 -1 -1 -3 -3 -3 -3 -3 -3 -1 -0 0 1 2 2 3 2 -1 1 0 2 0 2 2 1 -1 -2 -2 -1 -2 -2 -2 -2 -2
-7 -6 -6 -5 -5 -2 -4 -3 -1 -0 -1 -0 -0 -0 -1 -3 -4 -3 -1 -1 -1 -1 -0 -1 -1 -1 -1 -1 -2 -2 -2 -2 -0 1 2 3 -1 -0 -1 0 2 -2 -1 2 4 0 0 -1 -0 -1 -1 -2 -2 -2
-6 -6 -6 -4 -4 -6 -5 -1 0 0 0 -0 -0 -1 -2 -2 -2 -2 -1 -0 -1 -1 -1 -2 -3 -3 -1 -1 -0 -0 -1 -1 -0 2 1 1 0 1 2 1 -3 -4 -1 1 -1 2 2 1 -0 -2 -1 -2 -3 -2
-6 -5 -4 -2 -1 -0 0 0 -0 -0 -0 -0 -0 -0 -1 -1 -1 -1 -1 -0 -2 -1 -3 -1 -4 -2 -1 0 1 1 1 1 1 1 0 1 2 2 3 2 -2 -2 -2 -0 1 1 0 -0 -1 -1 -1 -2 -3 -3
-3 -2 -0 -0 -0 0 0 -0 -0 -0 -0 -0 -0 -1 -1 -1 -1 -1 -2 -2 -0 -1 -2 -1 -3 1 -0 1 1 1 1 1 1 0 0 1 2 2 3 1 -0 -1 -0 -1 -1 -1 -1 -1 -1 -1 -2 -2 -3 -3
-2 -1 -0 -0 -0 -0 -0 -0 -0 -0 -1 -1 -0 -1 -1 -1 -1 -1 -2 -1 -1 -1 -1 -2 -1 -0 0 0 0 0 0 1 0 1 2 2 3 3 1 -1 -2 -2 -1 -1 -2 -1 -2 -2 -2 -2 -2 -3 -3 -4
-1 -1 -1 -1 -1 -1 -0 -0 -1 -1 -1 -1 -1 -2 -2 -1 -1 -1 -2 -1 -1 -1 -1 -1 -1 0 0 -0 -0 -0 -0 1 3 2 2 3 1 -2 -1 -2 -2 -2 -1 -2 -2 -1 -2 -2 -2 -2 -2 -3 -3 -4
-3 -3 -3 -3 -3 -2 -2 -1 -1 -1 -2 -2 -2 -2 -1 -1 -1 -1 -1 -1 -1 -0 -1 -2 -4 -1 0 1 1 1 2 2 4 3 2 1 0 -0 -2 -2 -2 -1 -1 -2 -2 -2 -2 -2 -2 -2 -3 -3 -4 -4
-3 -2 -2 -2 -2 -2 -2 -2 -3 -2 -1 -2 -2 -2 -2 -1 -1 -0 -0 -2 -0 -3 -1 -1 -0 1 -0 0 0 1 3 1 2 -1 1 -1 -0 -2 -2 -2 -2 -1 -1 -2 -2 -2 -3 -3 -3 -2 -3 -3 -4 -5
-2 -1 -1 -1 -2 -2 -2 -2 -1 -3 -3 -4 -3 -3 -2 -2 0 -1 -1 -2 0 1 0 0 1 0 0 0 0 2 1 -0 -3 1 -2 1 -2 -2 -2 -1 -2 -2 -1 -2 -2 -2 -3 -4 -3 -3 -3 -3 -5 -5
-1 -2 -1 -2 -2 -2 -2 -2 -3 -3 -5 -3 -2 -1 -1 -1 -2 -2 1 0 0 0 0 0 -0 0 -0 1 0 2 1 -2 -1 -0 -1 -0 -2 -2 -2 -1 -1 -2 -3 -3 -4 -4 -4 -4 -3 -3 -3 -4 -5 -5
-4 -4 -4 -4 -4 -4 -4 -4 -4 -4 -4 -2 -2 -0 -2 -2 -2 -1 -1 -0 0 1 0 0 1 1 1 -1 1 -2 -1 -1 -3 0 -0 -3 -3 -3 -3 -2 -2 -3 -4 -5 -5 -5 -5 -5 -4 -4 -4 -4 -5 -6
-2 -2 -2 -2 -3 -3 -3 -3 -3 -3 -3 -2 -3 -1 -2 -1 -0 -2 -1 -1 -0 0 1 1 -1 0 -1 -1 -2 -1 -3 -3 1 -2 -3 -3 -3 -4 -4 -3 -3 -4 -4 -5 -5 -5 -5 -6 -6 -6 -6 -6 -7 -7
-2 -3 -3 -3 -4 -4 -3 -3 -2 -3 -4 -3 -1 -2 -2 -1 -1 -1 -1 -0 0 -0 1 -1 -1 -2 -2 -2 -3 -1 -0 -1 -2 -3 -4 -4 -5 -4 -4 -3 -4 -4 -5 -5 -5 -5 -5 -6 -6 -6 -6 -6 -6 -7
-5 -5 -4 -4 -5 -4 -2 -3 -3 -4 -4 -3 -1 -2 -2 -3 -2 -2 -1 -1 -0 0 -0 0 -4 -3 -1 -2 -1 -2 -2 -4 -4 -4 -5 -5 -5 -4 -4 -3 -3 -4 -4 -4 -5 -5 -5 -5 -4 -4 -5 -5 -6 -6
-4 -6 -7 -7 -6 -3 -2 -4 -4 -4 -3 -3 -2 -2 -2 -2 -2 -2 -1 -1 -1 -2 -2 -4 -2 -2 -2 -3 -3 -3 -3 -3 -3 -4 -5 -5 -5 -4 -4 -4 -4 -3 -3 -3 -3 -3 -3 -4 -3 -4 -4 -4 -5 -5
-9 -10 -11 -10 -8 -4 -7 -5 -4 -5 -4 -3 -2 -2 -2 -2 -2 -2 -2 -2 -1 -2 -3 -4 -4 -3 -4 -5 -4 -4 -5 -4 -3 -3 -4 -5 -5 -5 -5 -5 -4 -4 -4 -4 -5 -5 -4 -5 -5 -5 -5 -5 -5 -5
-10 -8 -11 -11 -5 -7 -6 -6 -6 -5 -5 -3 -4 -2 -3 -3 -2 -2 -2 -2 -3 -3 -4 -4 -5 -6 -6 -6 -6 -6 -6 -5 -5 -5 -5 -5 -5 -5 -5 -5 -5 -5 -5 -6 -5 -6 -6 -5 -6 -6 -6 -6 -6 -6
-7 -13 -6 -6 -6 -6 -6 -6 -6 -5 -5 -4 -4 -4 -3 -2 -3 -4 -5 -5 -5 -5 -5 -5 -6 -6 -7 -7 -7 -7 -6 -6 -6 -6 -6 -6 -6 -6 -6 -6 -6 -6 -6 -6 -6 -6 -7 -7 -7 -7 -7 -8 -8 -8
-10 -10 -6 -6 -8 -6 -6 -5 -6 -7 -4 -5 -6 -4 -4 -4 -5 -7 -6 -6 -6 -7 -6 -6 -6 -6 -8 -8 -8 -9 -9 -7 -7 -8 -7 -7 -7 -7 -7 -7 -7 -7 -7 -7 -7 -7 -7 -7 -7 -7 -7 -7 -7 -7
-11 -12 -11 -6 -5 -4 -6 -4 -7 -8 -7 -7 -6 -6 -6 -5 -7 -8 -7 -6 -7 -7 -7 -7 -7 -7 -8 -8 -7 -8 -9 -8 -7 -8 -9 -8 -8 -8 -8 -9 -9 -9 -9 -8 -8 -8 -8 -8 -9 -8 -9 -8 -9 -9
-6 -7 -4 -5 -6 -4 -5 -5 -5 -8 -6 -6 -7 -6 -6 -7 -5 -6 -7 -7 -7 -7 -8 -7 -7 -7 -6 -8 -8 -9 -9 -9 -9 -8 -9 -10 -9 -8 -8 -9 -10 -11 -11 -10 -9 -10 -10 -10 -10 -10 -10 -10 -10 -10
-5 -5 -6 -6 -6 -6 -7 -5 -5 -6 -7 -6 -6 -6 -6 -6 -6 -6 -7 -6 -7 -8 -8 -8 -7 -8 -9 -9 -8 -9 -10 -10 -9 -9 -10 -11 -10 -10 -10 -9 -10 -11 -12 -11 -11 -11 -11 -11 -11 -11 -10 -10 -10 -11
-6 -6 -8 -8 -8 -8 -6 -6 -8 -7 -6 -6 -6 -6 -6 -6 -6 -8 -9 -9 -9 -10 -10 -10 -9 -9 -9 -10 -11 -11 -11 -11 -10 -10 -11 -12 -11 -11 -11 -11 -12 -12 -13 -12 -12 -12 -12 -12 -12 -12 -11 -10 -11 -12
-8 -8 -7 -8 -8 -9 -7 -7 -7 -7 -7 -7 -7 -6 -6 -6 -7 -10 -10 -11 -11 -11 -12 -12 -11 -11 -11 -12 -12 -12 -12 -11 -11 -11 -11 -12 -12 -13 -13 -14 -13 -13 -13 -13 -13 -13 -13 -14 -14 -13 -12 -12 -13 -13
-8 -7 -9 -7 -7 -9 -8 -9 -9 -6 -7 -8 -5 -5 -9 -11 -12 -12 -13 -13 -13 -12 -12 -12 -13 -13 -13 -13 -13 -13 -12 -12 -11 -11 -11 -10 -12 -14 -14 -14 -14 -14 -14 -14 -14 -14 -14 -15 -15 -14 -14 -14 -14 -13
-15 -13 -12 -12 -8 -11 -8 -5 -6 -7 -8 -8 -10 -11 -12 -14 -15 -14 -14 -13 -13 -12 -13 -13 -13 -12 -13 -12 -13 -14 -14 -14 -14 -13 -13 -14 -14 -14 -15 -15 -15 -16 -15 -16 -16 -16 -15 -15 -14 -15 -15 -15 -15 -15
-12 -11 -10 -9 -10 -8 -7 -8 -8 -9 -9 -10 -10 -9 -11 -14 -16 -16 -15 -15 -14 -14 -14 -14 -14 -14 -14 -14 -13 -14 -15 -16 -16 -16 -16 -16 -16 -16 -16 -16 -16 -16 -16 -16 -16 -16 -16 -16 -16 -16 -16 -16 -16 -16
-12 -11 -11 -11 -11 -8 -8 -8 -7 -8 -9 -10 -11 -12 -13 -13 -13 -16 -16 -16 -15 -15 -15 -15 -15 -15 -16 -16 -15 -16 -16 -16 -17 -17 -17 -17 -17 -17 -17 -17 -17 -17 -17 -17 -16 -16 -16 -17 -17 -17 -17 -17 -17 -17
-13 -12 -12 -13 -10 -8 -9 -9 -8 -9 -10 -10 -11 -11 -12 -12 -14 -17 -17 -17 -17 -17 -17 -16 -16 -17 -17 -16 -17 -17 -18 -18 -18 -18 -18 -18 -18 -17 -17 -17 -17 -18 -17 -17 -17 -17 -17 -17 -17 -17 -17 -17 -17 -18
Wind_Speed
27 27 26 28 29 31 31 34 37 38 37 38 44 40 41 51 48 52 24 25 12 3 1 4 3 6 7 15 8 4 3 3 3 4 4 7 8 10 11 15 8 9 7 9 13 14 15 17 13 5 2 4 6 6
26 26 27 28 28 30 32 32 36 31 35 44 49 44 50 52 49 44 17 16 16 8 2 4 9 11 8 6 2 3 1 5 5 3 7 5 6 4 7 6 5 6 10 7 7 4 11 14 1 9 3 2 1 3
25 26 26 27 29 31 31 34 34 26 33 37 44 60 51 49 46 51 16 14 10 5 10 12 14 17 23 13 9 5 4 4 6 9 5 3 6 5 6 6 11 11 13 4 9 7 10 4 5 6 4 2 3 7
28 26 26 29 28 31 31 33 30 24 42 46 47 48 46 43 42 46 37 12 11 5 3 4 6 14 19 21 19 21 18 7 6 7 6 2 4 10 6 8 9 6 6 7 6 11 15 7 12 7 6 4 7 11
24 26 29 28 27 30 32 32 21 41 50 46 50 45 44 40 34 30 33 14 14 7 0 5 9 13 11 14 18 21 20 22 20 9 4 3 6 7 10 9 9 12 11 7 8 12 10 11 2 2 8 9 11 15
24 26 26 28 31 35 36 21 55 53 49 49 46 43 36 34 30 28 13 19 15 12 0 2 4 10 12 17 16 18 23 24 22 7 6 5 10 5 4 6 11 16 11 20 17 3 12 3 5 5 9 10 13 15
24 22 31 26 23 27 41 40 42 46 48 44 42 37 32 31 32 21 7 6 19 14 3 3 5 8 11 9 14 17 16 15 17 7 6 5 6 7 2 8 14 22 21 10 3 3 5 6 2 5 8 11 14 14
22 12 25 39 43 46 48 51 50 47 41 37 34 32 30 28 23 22 3 6 15 14 5 3 3 5 7 6 6 10 8 10 9 6 4 5 5 7 4 13 13 9 8 10 8 7 6 5 5 7 9 12 15 16
25 27 47 49 56 56 50 45 44 42 38 34 32 28 25 20 11 14 12 8 22 7 4 4 3 1 7 5 5 7 8 3 8 4 5 8 4 5 7 9 5 5 5 8 8 4 4 4 5 8 11 14 16 17
40 40 43 45 44 43 42 41 40 39 37 36 32 11 5 11 8 14 8 4 7 6 6 4 7 3 8 9 6 4 7 4 4 6 9 3 4 9 3 3 6 7 9 7 6 5 6 6 8 10 12 13 15 15
37 37 38 38 38 39 40 39 37 35 32 21 6 4 16 23 10 7 5 5 6 4 8 9 20 7 7 3 3 6 2 3 3 4 5 4 2 4 3 6 7 8 9 6 5 2 3 6 9 11 12 14 14 16
34 34 35 34 33 32 31 30 31 23 13 10 12 18 18 6 4 4 4 5 5 5 11 7 6 8 6 5 2 2 1 2 1 6 3 2 3 6 8 8 8 7 4 3 1 2 3 4 7 11 13 15 15 16
29 28 28 28 23 22 29 32 19 21 22 17 5 4 4 5 6 5 7 5 5 7 6 7 3 5 4 4 1 2 3 3 4 2 3 3 8 8 9 8 8 3 1 2 1 2 4 6 9 12 14 15 16 17
25 25 26 26 27 29 27 18 18 17 9 4 4 5 4 5 5 4 2 3 3 6 13 13 7 4 4 4 2 2 3 2 4 4 2 4 8 8 7 6 6 4 3 4 4 3 3 5 9 12 13 15 16 16
23 23 21 20 20 19 15 10 11 10 3 2 3 4 5 4 2 2 2 3 3 8 16 6 3 3 2 2 3 3 3 4 4 2 3 6 6 7 6 3 4 4 4 5 4 3 2 4 7 10 11 12 12 13
22 17 14 10 18 18 14 13 11 7 2 2 3 3 5 4 3 2 3 4 4 12 8 3 3 3 3 3 4 4 4 2 3 3 5 5 7 6 5 3 2 3 4 5 5 4 2 3 5 6 7 8 9 9
9 9 14 14 17 14 9 5 2 2 2 2 2 0 4 4 4 1 0 2 4 7 1 2 2 2 2 3 4 4 4 3 7 6 4 5 6 6 4 2 3 3 4 5 5 5 4 4 3 3 4 5 6 7
16 15 15 15 8 6 0 2 0 2 2 2 2 3 2 2 2 1 2 4 3 4 3 1 3 1 3 1 3 3 6 8 7 6 6 4 6 6 5 4 3 2 3 3 5 5 5 6 6 2 1 2 4 5
10 6 6 5 2 2 1 1 2 1 1 1 3 1 2 3 7 3 4 4 2 5 1 2 3 3 3 5 7 10 8 6 5 6 8 9 10 8 7 7 6 5 4 3 3 1 1 3 4 3 1 2 1 5
4 4 4 2 3 2 1 1 1 1 1 2 2 2 2 2 4 7 7 6 5 3 5 3 3 3 6 8 9 7 5 4 3 7 7 9 9 11 11 9 9 8 7 7 6 4 5 4 3 2 2 3 3 6
2 5 3 1 2 2 1 2 0 1 2 1 3 2 1 1 2 3 3 5 5 4 3 5 8 10 9 10 9 6 8 7 5 6 5 5 6 6 7 7 8 7 8 8 6 7 4 2 2 4 4 5 5 6
4 2 1 1 2 1 1 2 1 3 2 3 5 3 2 3 2 1 2 5 4 3 3 9 9 10 8 7 7 7 9 8 5 5 6 4 4 5 4 4 5 6 5 6 6 5 4 3 3 5 5 6 6 6
2 1 0 1 1 1 1 2 3 3 2 3 3 2 2 2 2 2 3 4 3 5 8 10 10 8 8 8 6 7 8 7 2 4 5 4 4 4 3 5 3 2 4 5 4 5 5 6 6 5 6 6 6 6
3 1 1 1 1 0 1 2 2 2 1 3 3 2 2 2 3 2 2 4 4 6 5 9 7 6 5 6 6 4 7 6 4 5 6 4 2 4 4 4 6 3 3 2 2 3 4 4 6 6 7 7 7 8
2 3 2 2 1 1 2 1 2 1 2 2 0 0 2 3 2 3 2 5 8 7 7 6 5 3 5 3 4 4 5 6 4 3 4 4 4 2 2 3 5 7 6 3 4 3 5 7 7 8 8 9 10 10
2 3 3 3 2 2 1 1 2 2 1 2 1 2 1 2 3 2 3 5 7 7 7 6 6 5 5 4 4 3 2 2 4 2 1 3 3 4 2 1 2 7 7 7 7 7 7 8 8 8 9 10 10 11
2 3 3 3 5 4 2 2 1 2 2 3 2 3 3 3 3 4 4 6 5 6 8 9 5 4 6 5 3 4 1 1 7 4 1 0 1 2 1 1 3 7 9 9 9 10 10 10 10 10 7 9 13 15
3 5 4 9 5 3 3 3 2 3 2 2 1 4 2 4 3 3 3 4 4 4 5 7 7 7 6 6 4 3 3 4 3 2 3 4 4 4 4 5 8 11 10 9 10 11 11 12 10 7 7 11 16 14
4 7 9 4 3 3 3 2 2 4 3 3 3 2 3 3 3 2 3 5 9 6 3 3 2 3 2 1 1 1 2 6 6 3 2 1 6 4 8 11 10 11 11 10 10 9 12 12 9 8 7 10 11 10
5 9 7 8 2 3 2 3 4 3 1 1 2 4 4 3 1 5 5 5 5 6 8 8 5 6 6 4 1 4 3 1 3 6 2 1 5 9 11 10 10 10 10 11 11 9 9 3 5 9 6 7 7 5
9 8 7 8 5 5 4 3 2 1 2 1 2 2 6 5 3 4 7 8 8 5 4 2 4 5 4 7 6 3 3 5 3 1 3 2 3 6 8 8 9 8 9 9 7 6 4 4 4 3 2 1 1 2
7 5 7 6 10 5 9 4 5 6 3 3 2 2 3 5 3 2 2 7 4 4 8 6 3 4 5 2 3 6 8 7 5 3 3 3 5 6 6 6 6 6 6 7 6 5 4 4 4 5 5 6 7 7
8 8 7 8 6 6 11 9 4 5 3 3 3 2 2 3 3 1 2 7 8 7 5 6 6 4 7 7 3 2 2 2 3 3 4 4 5 4 4 4 4 3 3 4 5 5 6 6 6 6 6 5 5 4
Wind_Direction
253 251 247 242 242 242 244 244 247 248 249 216 213 216 216 201 190 196 209 205 194 211 247 245 245 219 189 220 221 205 129 90 146 178 226 238 261 255 248 251 237 191 214 214 231 251 266 253 259 254 60 86 14 352
250 247 244 243 242 244 243 247 253 233 224 217 210 210 207 200 182 190 195 187 191 194 220 233 237 229 235 348 230 227 103 117 158 196 228 264 250 289 274 275 280 203 214 224 205 222 11 319 16 293 355 39 20 76
246 247 246 243 251 243 246 247 251 241 218 209 202 195 190 192 185 194 188 188 183 221 270 255 248 238 229 233 231 227 221 173 187 226 311 292 272 288 276 273 267 212 250 227 280 269 268 201 220 247 251 262 174 157
246 251 246 254 249 244 247 245 248 233 195 184 178 178 187 183 192 198 204 200 184 165 258 278 256 240 237 242 239 232 242 239 242 283 279 279 286 314 297 296 300 285 280 235 275 285 294 311 276 240 202 211 186 163
249 253 257 253 238 249 245 237 233 177 177 180 171 178 179 182 184 190 198 214 191 208 151 283 291 249 225 224 231 229 232 235 245 255 234 242 287 285 279 273 267 282 294 287 275 273 242 270 245 181 197 199 186 168
252 256 247 248 241 246 249 193 159 172 168 164 171 173 174 174 177 180 202 216 202 210 346 269 283 247 210 218 220 221 224 228 230 212 227 239 253 263 278 282 280 286 312 311 297 287 292 255 279 257 209 201 188 177
255 248 250 244 194 164 159 161 167 160 160 165 168 165 168 172 179 171 162 159 203 194 182 270 236 199 205 211 214 226 231 231 220 201 209 232 231 200 245 264 273 279 283 280 307 187 241 260 240 192 199 192 182 178
243 220 148 145 146 154 154 151 156 157 152 147 152 160 168 169 175 187 97 159 181 173 176 250 249 185 187 185 200 193 177 187 196 204 216 209 212 203 248 251 271 302 283 299 298 277 273 289 229 200 182 175 174 170
147 125 134 137 139 140 143 141 138 141 144 148 149 147 149 164 166 185 199 156 182 167 196 223 251 188 172 177 182 186 182 188 191 202 203 193 192 220 235 256 286 336 315 307 316 292 276 238 215 186 178 176 178 174
114 112 110 115 122 126 130 134 136 137 139 137 135 122 110 153 155 188 191 219 209 214 217 240 245 223 175 179 192 212 190 193 194 206 162 219 240 237 151 312 301 301 301 300 276 271 247 217 200 189 186 185 185 184
109 112 115 120 124 127 130 133 139 141 137 128 112 90 132 138 143 165 195 207 183 219 212 230 224 207 205 188 215 219 213 189 215 164 191 201 186 62 13 342 327 310 290 262 233 281 280 234 207 195 190 189 191 188
115 117 119 122 125 129 133 135 138 136 141 144 128 129 144 160 168 197 196 185 211 229 180 217 168 150 147 175 211 246 281 225 209 158 183 233 89 45 7 345 332 326 309 258 314 301 260 217 209 201 196 192 194 194
113 116 120 123 125 129 143 146 144 138 124 117 89 120 165 166 211 218 191 201 209 159 165 145 120 122 136 176 206 249 176 210 134 173 212 71 66 23 2 347 350 3 44 6 322 247 219 206 191 193 191 192 194 192
115 117 121 124 131 139 141 127 137 140 132 98 147 175 223 174 231 219 13 351 351 132 144 151 127 148 139 174 157 216 206 195 194 210 162 59 22 7 358 7 18 332 338 294 300 288 238 214 199 191 195 196 204 206
115 117 119 125 133 142 153 154 154 155 112 144 203 218 217 260 273 308 307 269 243 154 144 122 139 140 119 148 230 139 181 209 225 90 70 38 17 5 355 345 26 1 8 355 345 332 241 199 198 196 194 204 212 212
105 113 130 139 126 118 125 123 120 126 138 213 249 253 253 253 183 200 259 236 203 150 138 164 202 157 199 169 177 212 203 165 75 72 58 25 16 358 10 14 31 46 30 27 36 50 89 146 171 187 193 194 196 203
93 109 118 126 111 103 91 96 122 171 199 252 189 295 309 313 38 90 199 175 159 144 216 229 200 123 141 199 132 22 32 66 71 66 38 18 13 5 40 48 92 89 69 66 60 61 79 101 119 149 180 198 212 220
103 105 106 123 109 82 14 284 220 192 226 234 258 101 49 351 350 32 68 118 179 222 235 132 176 186 23 120 99 91 104 98 76 67 37 20 28 40 55 70 91 94 78 68 72 64 70 84 62 23 269 223 235 240
110 97 109 103 132 295 205 246 260 154 9 95 119 124 98 92 44 87 103 84 61 52 62 55 41 43 74 41 96 91 90 86 93 71 53 45 43 50 56 55 53 56 53 56 99 129 328 168 164 126 272 329 104 296
61 53 48 145 169 276 229 273 249 199 186 144 145 96 54 72 70 58 69 65 61 64 53 49 56 50 100 93 98 107 101 110 25 129 74 50 47 44 50 53 52 46 35 44 38 60 50 36 2 300 268 261 209 236
298 273 288 271 269 281 260 266 222 105 157 187 144 170 113 111 58 38 54 35 57 36 83 87 107 114 132 127 113 115 98 84 97 84 69 52 42 49 47 46 44 55 57 59 51 57 62 18 343 327 327 314 303 281
297 292 164 280 246 259 277 246 332 168 202 155 181 212 152 154 125 67 72 65 62 58 69 131 131 124 120 114 105 94 97 88 69 64 58 58 46 44 32 43 41 39 44 50 38 44 56 21 15 360 360 1 357 345
360 87 198 242 258 221 200 262 214 208 162 199 188 163 171 152 123 140 92 76 92 122 125 132 140 140 118 99 74 81 92 78 72 52 46 41 30 46 28 35 56 96 39 4 12 359 355 359 348 353 354 351 344 338
3 147 97 74 351 137 312 283 265 184 308 198 176 210 135 157 168 195 125 85 115 146 137 137 127 123 110 110 81 46 70 62 62 30 38 62 35 24 44 47 44 38 109 38 31 359 319 328 336 332 327 336 330 316
294 11 35 72 329 203 214 216 308 219 218 236 117 312 132 183 199 188 159 119 160 150 153 152 149 147 126 130 107 56 59 75 81 65 33 55 95 65 62 16 349 6 7 350 3 358 347 351 357 348 352 343 339 338
60 9 6 338 341 307 323 248 204 226 173 199 190 41 197 219 205 188 79 119 147 157 162 154 143 152 127 102 107 115 346 84 96 123 350 77 103 148 127 113 29 331 358 1 355 348 346 341 342 344 345 340 323 311
44 14 3 357 313 314 285 246 292 243 213 216 171 182 199 225 189 83 117 64 122 143 177 167 120 96 122 127 183 244 251 142 166 179 171 7 50 67 98 39 327 326 337 331 330 327 328 325 326 328 323 323 291 308
16 9 349 338 322 319 295 296 250 227 233 54 263 210 247 16 70 73 103 168 148 162 173 170 162 165 171 192 183 138 72 49 104 113 69 6 325 337 335 339 326 322 322 321 323 324 319 320 320 328 303 283 293 304
346 341 329 288 297 282 259 251 280 70 30 333 307 49 91 81 99 119 172 180 166 152 154 162 167 124 104 94 130 132 168 172 147 188 247 324 156 360 324 326 324 322 324 325 322 323 317 326 329 326 303 299 304 307
321 338 309 289 270 262 349 22 61 71 68 112 128 113 101 103 173 136 109 118 150 167 178 192 169 162 161 174 273 326 347 334 195 185 133 237 280 297 307 316 321 325 326 326 328 330 327 326 253 290 285 293 306 316
307 312 271 261 267 281 89 9 359 177 175 138 146 90 122 145 154 171 181 184 190 177 141 151 158 151 151 159 146 142 88 336 342 316 208 219 284 296 315 326 327 333 332 338 343 350 352 320 327 336 358 18 58 83
295 294 327 305 301 312 321 281 225 190 172 174 130 133 137 161 129 153 195 135 136 201 196 172 187 210 195 197 216 212 229 269 308 328 325 315 315 323 327 333 339 350 355 3 21 35 40 43 55 68 80 89 93 95
296 284 298 303 307 348 7 331 240 158 185 146 110 92 71 36 100 205 88 180 178 178 169 178 205 218 173 169 205 280 311 329 330 338 338 337 337 342 342 347 359 14 21 26 33 44 56 63 73 79 82 82 80 77
Height
1355 1357 1358 1360 1363 1366 1369 1372 1375 1379 1382 1388 1395 1403 1410 1420 1431 1444 1449 1451 1455 1454 1453 1453 1454 1457 1460 1462 1464 1465 1470 1473 1478 1481 1482 1470 1460 1450 1443 1442 1446 1456 1460 1458 1460 1461 1456 1439 1437 1447 1441 1440 1442 1441
1348 1349 1350 1352 1355 1357 1360 1362 1364 1367 1372 1379 1387 1397 1407 1417 1428 1443 1446 1448 1452 1455 1455 1454 1455 1456 1459 1462 1462 1466 1467 1469 1473 1476 1471 1460 1454 1448 1444 1447 1439 1451 1444 1444 1444 1441 1440 1439 1439 1444 1440 1440 1441 1442
1340 1341 1343 1345 1347 1349 1351 1354 1355 1358 1363 1371 1376 1391 1403 1415 1427 1439 1444 1447 1451 1454 1454 1454 1454 1456 1457 1460 1464 1468 1466 1468 1470 1471 1470 1464 1455 1448 1447 1441 1438 1440 1440 1443 1448 1434 1434 1432 1436 1437 1440 1440 1439 1441
1333 1334 1336 1337 1338 1339 1342 1344 1346 1349 1358 1368 1378 1391 1404 1417 1428 1437 1443 1446 1450 1453 1453 1450 1450 1451 1453 1456 1459 1462 1464 1466 1467 1469 1469 1466 1460 1451 1446 1443 1441 1440 1440 1438 1436 1433 1432 1433 1436 1434 1436 1438 1439 1440
1327 1327 1327 1328 1330 1329 1332 1338 1337 1346 1357 1368 1382 1395 1408 1420 1429 1437 1445 1446 1448 1453 1451 1450 1448 1448 1449 1451 1453 1457 1460 1462 1465 1467 1466 1464 1459 1457 1448 1443 1439 1437 1434 1434 1434 1432 1433 1432 1433 1433 1434 1436 1438 1439
1321 1319 1318 1318 1318 1322 1323 1326 1336 1349 1361 1374 1387 1400 1411 1421 1431 1438 1444 1445 1447 1449 1453 1450 1446 1444 1445 1447 1449 1452 1455 1457 1461 1461 1462 1460 1459 1461 1452 1439 1434 1433 1433 1431 1427 1427 1430 1429 1429 1430 1432 1435 1437 1439
1314 1312 1308 1308 1311 1317 1325 1335 1344 1355 1368 1382 1394 1404 1414 1422 1429 1435 1439 1440 1443 1449 1452 1450 1441 1439 1440 1443 1446 1447 1449 1452 1454 1455 1455 1456 1455 1456 1451 1442 1434 1433 1431 1429 1426 1427 1429 1430 1428 1429 1431 1433 1436 1440
1306 1306 1301 1306 1315 1324 1333 1343 1354 1366 1378 1389 1400 1409 1417 1424 1431 1436 1438 1439 1442 1448 1451 1448 1436 1437 1438 1441 1443 1443 1445 1446 1448 1449 1450 1449 1449 1448 1442 1433 1430 1427 1427 1427 1427 1427 1427 1427 1427 1428 1430 1433 1436 1439
1310 1309 1312 1318 1326 1334 1344 1354 1364 1375 1386 1396 1405 1413 1420 1425 1430 1435 1439 1441 1442 1447 1445 1443 1436 1429 1436 1437 1439 1441 1441 1443 1444 1442 1442 1444 1438 1436 1431 1428 1428 1428 1428 1427 1426 1426 1426 1426 1427 1428 1430 1433 1436 1438
1321 1325 1328 1334 1341 1349 1357 1366 1374 1383 1391 1400 1409 1416 1422 1426 1431 1436 1440 1441 1441 1440 1440 1439 1433 1430 1435 1436 1436 1438 1435 1434 1432 1433 1433 1433 1426 1424 1427 1429 1428 1428 1428 1426 1426 1426 1426 1426 1427 1428 1429 1432 1436 1438
1338 1342 1346 1352 1357 1363 1370 1376 1383 1391 1398 1405 1412 1418 1423 1428 1433 1436 1437 1437 1436 1435 1431 1426 1424 1427 1431 1432 1431 1430 1427 1426 1421 1423 1424 1421 1419 1426 1428 1428 1427 1426 1425 1425 1425 1424 1425 1425 1426 1427 1429 1432 1435 1437
1353 1357 1361 1366 1370 1375 1381 1387 1393 1398 1403 1409 1412 1419 1424 1428 1430 1432 1429 1428 1427 1418 1417 1416 1418 1420 1426 1428 1428 1427 1422 1422 1419 1419 1420 1417 1426 1427 1427 1427 1426 1425 1424 1424 1424 1424 1424 1424 1425 1426 1428 1431 1433 1435
1366 1369 1372 1376 1380 1384 1390 1394 1398 1403 1407 1411 1415 1420 1422 1425 1423 1421 1414 1409 1409 1409 1411 1412 1417 1420 1425 1427 1427 1426 1425 1422 1417 1419 1417 1422 1427 1428 1428 1427 1426 1425 1424 1424 1424 1423 1422 1422 1423 1425 1427 1430 1432 1435
1376 1379 1382 1384 1388 1392 1395 1399 1403 1406 1409 1413 1417 1419 1418 1415 1412 1406 1408 1409 1408 1406 1408 1412 1416 1419 1422 1423 1425 1422 1422 1418 1417 1417 1413 1427 1429 1428 1428 1426 1426 1424 1424 1424 1423 1423 1422 1422 1423 1425 1427 1429 1432 1434
1386 1388 1391 1394 1396 1399 1402 1404 1406 1408 1411 1414 1415 1409 1410 1409 1408 1409 1409 1409 1407 1407 1408 1412 1414 1416 1418 1422 1419 1418 1421 1415 1410 1411 1424 1429 1429 1428 1427 1426 1425 1425 1425 1424 1423 1422 1422 1423 1424 1425 1427 1429 1431 1433
1393 1395 1397 1398 1400 1403 1405 1407 1409 1410 1413 1414 1413 1410 1408 1408 1407 1408 1408 1407 1406 1406 1409 1411 1411 1412 1413 1410 1411 1411 1407 1405 1419 1426 1429 1429 1428 1428 1426 1426 1426 1426 1426 1425 1424 1424 1423 1423 1425 1426 1428 1429 1431 1433
1400 1401 1402 1404 1406 1407 1408 1409 1410 1412 1412 1412 1410 1410 1410 1408 1407 1407 1407 1406 1406 1408 1408 1407 1405 1404 1407 1405 1408 1415 1418 1425 1428 1429 1430 1429 1429 1427 1426 1426 1426 1426 1426 1426 1426 1426 1425 1426 1427 1427 1429 1430 1431 1432
1402 1404 1406 1408 1409 1409 1411 1411 1411 1411 1411 1411 1409 1410 1410 1410 1408 1408 1407 1407 1408 1407 1407 1406 1405 1404 1407 1405 1414 1424 1427 1429 1430 1430 1430 1430 1429 1427 1426 1427 1427 1427 1427 1428 1428 1428 1428 1429 1429 1429 1430 1430 1431 1432
1408 1409 1410 1410 1411 1411 1411 1411 1410 1410 1410 1410 1410 1411 1410 1410 1409 1408 1408 1408 1407 1407 1407 1407 1409 1410 1419 1423 1424 1426 1428 1429 1430 1432 1431 1430 1429 1428 1428 1428 1428 1428 1428 1428 1428 1428 1429 1429 1430 1431 1431 1431 1432 1431
1411 1411 1411 1411 1412 1411 1411 1411 1410 1409 1409 1410 1410 1411 1411 1411 1411 1410 1409 1409 1409 1409 1412 1414 1419 1423 1424 1426 1427 1428 1430 1430 1431 1431 1432 1432 1431 1430 1430 1430 1430 1429 1429 1429 1429 1429 1430 1430 1430 1430 1430 1430 1430 1430
1412 1412 1411 1412 1412 1412 1411 1410 1409 1409 1410 1410 1410 1411 1412 1411 1411 1411 1411 1411 1412 1415 1418 1422 1424 1425 1426 1427 1429 1430 1430 1431 1431 1432 1432 1433 1433 1432 1432 1432 1431 1431 1430 1430 1430 1430 1430 1430 1430 1429 1429 1429 1429 1429
1411 1411 1411 1412 1412 1411 1411 1410 1409 1409 1410 1409 1411 1410 1410 1411 1412 1413 1413 1414 1418 1421 1421 1423 1425 1426 1428 1429 1429 1430 1430 1432 1433 1433 1433 1433 1433 1433 1433 1433 1433 1432 1432 1432 1431 1431 1431 1430 1430 1429 1428 1428 1427 1427
1410 1410 1411 1411 1411 1411 1412 1410 1409 1408 1409 1408 1409 1409 1410 1411 1412 1414 1415 1418 1421 1422 1423 1424 1425 1426 1427 1429 1430 1430 1431 1432 1432 1433 1434 1434 1434 1433 1433 1433 1432 1432 1433 1432 1432 1432 1431 1431 1430 1429 1429 1428 1427 1426
1410 1410 1409 1410 1410 1410 1411 1409 1407 1407 1407 1406 1406 1408 1408 1409 1412 1411 1412 1418 1422 1423 1424 1425 1427 1428 1429 1431 1431 1431 1431 1433 1432 1433 1433 1434 1434 1434 1434 1434 1433 1432 1432 1432 1432 1432 1431 1431 1430 1429 1428 1427 1426 1425
1412 1413 1413 1411 1410 1410 1409 1409 1409 1406 1407 1408 1407 1408 1409 1410 1409 1409 1411 1420 1422 1424 1425 1426 1428 1429 1430 1430 1431 1431 1431 1432 1433 1433 1433 1433 1434 1434 1435 1434 1433 1432 1431 1431 1431 1431 1430 1429 1428 1427 1426 1425 1423 1422
1411 1413 1413 1411 1410 1409 1407 1406 1407 1407 1406 1408 1408 1409 1410 1409 1409 1407 1414 1420 1422 1423 1425 1426 1428 1429 1430 1430 1431 1431 1431 1431 1432 1433 1433 1433 1433 1434 1434 1435 1434 1432 1431 1431 1430 1429 1428 1427 1426 1425 1425 1424 1422 1420
1413 1414 1414 1413 1412 1410 1409 1408 1407 1407 1406 1406 1406 1409 1408 1407 1403 1417 1421 1422 1423 1423 1424 1425 1427 1428 1429 1429 1429 1429 1429 1429 1430 1432 1432 1432 1432 1432 1432 1433 1432 1432 1431 1430 1429 1427 1426 1425 1424 1423 1422 1422 1419 1418
1417 1417 1416 1416 1414 1412 1411 1409 1407 1405 1405 1406 1406 1405 1404 1408 1413 1420 1420 1422 1422 1423 1424 1425 1426 1426 1427 1427 1428 1429 1430 1429 1430 1431 1431 1432 1431 1431 1431 1431 1431 1430 1429 1427 1426 1424 1423 1422 1421 1420 1420 1418 1417 1416
1419 1419 1418 1415 1415 1412 1411 1408 1406 1408 1410 1410 1409 1406 1413 1417 1419 1420 1420 1420 1422 1424 1425 1425 1425 1426 1427 1427 1427 1428 1428 1429 1430 1431 1432 1433 1431 1430 1429 1429 1428 1427 1426 1425 1423 1422 1420 1419 1418 1417 1417 1415 1414 1412
1422 1421 1420 1417 1415 1412 1409 1409 1409 1411 1411 1412 1412 1414 1416 1417 1418 1419 1420 1421 1423 1423 1423 1424 1425 1426 1427 1428 1428 1428 1427 1427 1428 1429 1430 1430 1429 1429 1427 1426 1426 1425 1423 1422 1421 1420 1419 1418 1417 1415 1414 1413 1412 1411
1423 1421 1417 1415 1411 1410 1410 1410 1410 1410 1411 1412 1412 1413 1414 1417 1418 1418 1418 1419 1420 1422 1423 1424 1424 1425 1426 1427 1428 1428 1427 1427 1427 1427 1427 1427 1427 1426 1426 1425 1424 1423 1422 1421 1419 1418 1417 1416 1415 1414 1413 1412 1411 1411
1423 1421 1419 1417 1415 1412 1412 1410 1409 1410 1411 1412 1413 1413 1414 1416 1418 1419 1418 1419 1420 1421 1422 1423 1424 1423 1424 1425 1425 1425 1426 1425 1425 1425 1425 1425 1425 1425 1424 1424 1423 1422 1421 1420 1419 1418 1417 1416 1415 1415 1414 1414 1414 1414
1422 1420 1419 1417 1413 1411 1411 1410 1406 1407 1409 1410 1412 1414 1414 1414 1417 1419 1418 1418 1419 1420 1421 1421 1422 1422 1423 1424 1424 1424 1424 1424 1424 1424 1424 1424 1424 1424 1423 1423 1422 1421 1421 1420 1419 1419 1418 1418 1417 1417 1417 1417 1417 1417